Find Starlink 3831

NORAD ID: 52332 Int'l Des: 2022-045 Owner: SPXS Country: US Constellation: starlink operational
LEOCIRCULAR

現在のビュー

3D地球を読み込み中...

About Starlink 3831

Starlink 3831 (NORAD 52332) is a starlink constellation satellite (v1.5) launched Apr 29, 2022 by SPXS of US. It operates in LEO, CIRCULAR orbit with a mass of 297.00 kg.

次回通過

Passes for default location (London). Set your location on the main map for personalized predictions.

高度履歴

Loading altitude history...

軌道要素

1 52332U 22045B 26262.00002315 -.00001383 00000-0 -30715-4 0 9994
2 52332 53.1593 58.4366 0000908 72.0707 285.3294 15.33562644 5709
Epoch: Sep 19, 2026 • Age: 24 hours

現在のステータス

高度 465.4 km
遠地点 / 近地点 N/A
速度 7.64 km/s
衛星直下点 9.61°N, 135.47°W
打ち上げ日 Apr 29, 2022
運用期間 4.3 years
タイプ internet

技術仕様

分類 Payload
質量 297.00 kg
乾燥質量 275.00 kg
長さ 0.20 m
スパン 9.00 m
形状 ? Box + pan
製造者 SPXS
バスタイプ Starlink
フェーズステータス In Orbit
所有者/国 SPXS/US

Most Searched